Flag for Australia Weather past 2 weeks in Cairns, Queensland, Australia

68 °F

Sprinkles. Partly cloudy.

Feels Like: 68 °F
Forecast: 72 / 78 °F
Wind: 14 mph from South

Location: Cairns Airport

Current Time: Oct 9, 2015 at 3:08:31 AM

Latest Report: Oct 9, 2015 at 2:00 AM

Visibility: 5 mi

Pressure: 30.09 "Hg

Humidity: 94%

Dew point: 66 °F

Location of CairnsLocation

Historic Weather in Cairns — Graph


Cairns temperature yesterday

Maximum temperature yesterday: 84 °F (at 1:00 PM)
Minimum temperature yesterday: 70 °F (at 11:00 PM)
Average temperature yesterday: 76 °F

Past Weeks' High & Low Weather Summary

High86 °F (Oct 1, 1:00 PM)94% (Oct 3, 9:00 AM)30.24 "Hg (Oct 3, 9:00 AM)
Low61 °F (Sep 24, 2:00 AM)31% (Oct 1, 1:00 PM)29.92 "Hg (Sep 24, 3:00 PM)
Average75 °F63%30.09 "Hg
* Reported Sep 24 2:00 AM — Oct 9 2:00 AM, Cairns, Weather by CustomWeather, © 2015

Note: Actual official high and low records may vary slightly from our data, if they occured in-between our weather recording intervals... More about our weather records


Cairns weather history for previous 24 hours

Time TempWeatherWind HumidityBarometerVisibility
2:00 AM
Fri, Oct 9
68 °FSprinkles. Partly cloudy.14 mph94%30.09 "Hg5 mi
1:30 AM70 °FPassing clouds.13 mph83%30.09 "HgN/A
1:00 AM70 °FPassing clouds.10 mph83%30.12 "HgN/A
12:30 AM70 °FPassing clouds.10 mph83%30.12 "HgN/A
12:00 AM70 °FScattered showers. Passing clouds.9 mph88%30.15 "HgN/A
11:30 PM
Thu, Oct 8
72 °FScattered showers. Passing clouds.10 mph73%30.15 "HgN/A
11:00 PM70 °FPassing clouds.10 mph83%30.15 "HgN/A
10:00 PM73 °FPassing clouds.13 mph69%30.15 "HgN/A
9:30 PM75 °FPassing clouds.15 mph65%30.15 "HgN/A
9:00 PM75 °FPassing clouds.18 mph65%30.15 "HgN/A
8:30 PM75 °FScattered showers. Passing clouds.14 mph65%30.15 "HgN/A
8:00 PM73 °FSprinkles. Passing clouds.18 mph78%30.15 "HgN/A
7:30 PM75 °FPassing clouds.20 mph65%30.12 "HgN/A
7:00 PM75 °FPassing clouds.20 mph61%30.12 "HgN/A
6:00 PM77 °FPassing clouds.22 mph57%30.12 "HgN/A
5:30 PM77 °FPassing clouds.24 mph57%30.09 "HgN/A
5:00 PM79 °FPassing clouds.24 mph54%30.09 "HgN/A
4:30 PM81 °FPassing clouds.24 mph45%30.09 "HgN/A
4:00 PM81 °FPassing clouds.24 mph45%30.09 "HgN/A
3:30 PM81 °FPassing clouds.25 mph42%30.07 "HgN/A
3:00 PM82 °FPassing clouds.23 mph45%30.09 "HgN/A
2:00 PM82 °FPassing clouds.24 mph37%30.09 "HgN/A
1:30 PM82 °FPassing clouds.26 mph40%30.09 "HgN/A
1:00 PM84 °FPassing clouds.24 mph37%30.12 "HgN/A
12:30 PM82 °FPassing clouds.26 mph40%30.12 "HgN/A
12:00 PM81 °FPassing clouds.25 mph39%30.15 "HgN/A
11:00 AM82 °FPassing clouds.23 mph45%30.15 "HgN/A
10:30 AM81 °FPassing clouds.24 mph48%30.18 "HgN/A
10:00 AM81 °FPassing clouds.24 mph45%30.18 "HgN/A
9:30 AM79 °FPassing clouds.23 mph51%30.18 "HgN/A
9:00 AM79 °FPassing clouds.23 mph48%30.15 "HgN/A
8:30 AM79 °FPassing clouds.23 mph51%30.15 "HgN/A
8:00 AM77 °FPassing clouds.14 mph57%30.15 "HgN/A
7:00 AM73 °FPassing clouds.16 mph65%30.12 "HgN/A
6:30 AM72 °FPassing clouds.15 mph69%30.12 "HgN/A
6:00 AM72 °FPassing clouds.12 mph69%30.12 "HgN/A
5:00 AM72 °FPassing clouds.9 mph69%30.09 "HgN/A
4:30 AM72 °FPassing clouds.12 mph69%30.09 "HgN/A
4:00 AM72 °FPassing clouds.12 mph69%30.09 "HgN/A
3:30 AM72 °FPassing clouds.13 mph73%30.09 "HgN/A
3:00 AM72 °FPassing clouds.16 mph69%30.09 "HgN/A
Weather by CustomWeather, © 2015

See weather overviewHow to use our weather pages